Location: Unspecified
(0.0000°N, 0.0000°E)
Time: 09:49:06
(UTC+00:00)

Explorer 7 - Visible Passes

Search period start: 21 April 2015 00:00
Search period end: 01 May 2015 00:00
Orbit: 489 x 696 km, 50.3° (Epoch: 20 April)

Date Brightness Start Highest point End Pass type
(mag) Time Alt. Az. Time Alt. Az. Time Alt. Az.
21 Apr 6.9 05:20:40 10° SW 05:24:53 77° NW 05:29:24 10° NNE visible
22 Apr 9.4 03:52:13 15° SE 03:52:27 15° SE 03:55:02 10° E visible
22 Apr 7.9 05:29:16 10° WSW 05:33:07 32° NW 05:37:07 10° NNE visible
23 Apr 8.4 04:00:59 33° ESE 04:00:59 33° ESE 04:04:36 10° ENE visible
24 Apr 7.5 04:09:41 54° NE 04:09:41 54° NE 04:13:09 10° NE visible
25 Apr 8.1 04:18:16 31° N 04:18:16 31° N 04:21:03 10° NNE visible
26 Apr 9.0 04:26:44 15° NNW 04:26:44 15° NNW 04:28:08 10° N visible
